Location: Gwatt
(46.7204°N, 7.6223°E)
Time: 01:20:16
(UTC+00:00)

Envisat - Pass Details

Date: 27 November 2020
Orbit: 764 x 766 km, 98.1° (Epoch: 19 January)

Event Time Altitude Azimuth Distance (km) Brightness Sun altitude
Rises 17:23:46 0° 196° (SSW) 3,219 6.6 -16.4°
Reaches altitude 10° 17:26:22 10° 208° (SSW) 2,299 6.0 -16.8°
Maximum altitude 17:30:40 28° 266° (W) 1,422 5.2 -17.5°
Drops below altitude 10° 17:35:01 10° 325° (NW) 2,314 5.8 -18.3°
Sets 17:37:40 0° 337° (NNW) 3,245 6.4 -18.7°
